Tracking 19475 objects as of 18-Jan-2019
HD Live streaming from Space Station
objects crossing your sky now

COSMOS 1162

Track COSMOS 1162 now!
10-day predictions
COSMOS 1162 is classified as:


NORAD ID: 11697
Int'l Code: 1980-012G
Perigee: 1,479.3 km
Apogee: 1,525.3 km
Inclination: 74.0 °
Period: 115.9 minutes
Semi major axis: 7873 km
RCS: 0.6669 m2 (medium)
Launch date: February 11, 1980
Source: Commonwealth of Independent States (former USSR) (CIS)
Launch site: PLESETSK MISSILE AND SPACE COMPLEX (PKMTR)
aabbcc
Your satellite tracking list
Your tracking list is empty




NASA's NSSDC Master Catalog

Two Line Element Set (TLE):
1 11697U 80012G   19017.97753115  .00000009  00000-0  17994-3 0  9993
2 11697  74.0180 215.1068 0029249  62.4576 106.4837 12.42702374766410
Source of the keplerian elements: AFSPC